This is the latest recevied weather packets stored in our database for station/object AC2VK-1. If no packets are shown the sender has not sent any weather packets the latest 10 day(s).
| Time | Temp. | Humidity | Pressure | Rain* | Wind** | Luminosity | Snow |
|---|---|---|---|---|---|---|---|
| 1777474174 | 19.44° C | 80% | 1014.3 hPa | 0 mm | - | - | - |
| 1777473574 | 18.89° C | 81% | 1014.2 hPa | 0 mm | - | - | - |
| 1777472974 | 18.89° C | 82% | 1014.4 hPa | 0 mm | - | - | - |
| 1777472374 | 18.89° C | 82% | 1014.4 hPa | 0 mm | - | - | - |
| 1777471774 | 18.33° C | 83% | 1014.4 hPa | 0 mm | - | - | - |
| 1777471174 | 18.33° C | 83% | 1014.1 hPa | 0 mm | - | - | - |
| 1777470574 | 18.33° C | 84% | 1014.2 hPa | 0 mm | - | - | - |
| 1777469974 | 17.78° C | 85% | 1014.3 hPa | 0 mm | - | - | - |
| 1777469374 | 17.78° C | 86% | 1014.6 hPa | 0 mm | - | - | - |
| 1777468774 | 17.78° C | 86% | 1014.7 hPa | 0 mm | - | - | - |
| 1777468174 | 17.78° C | 86% | 1014.9 hPa | 0 mm | - | - | - |
| 1777467574 | 17.78° C | 87% | 1015 hPa | 0 mm | - | - | - |
| 1777466974 | 17.22° C | 88% | 1014.9 hPa | 0 mm | - | - | - |
| 1777466374 | 17.22° C | 88% | 1014.6 hPa | 0 mm | - | - | - |
| 1777465775 | 17.22° C | 87% | 1014.4 hPa | 0 mm | - | - | - |
| 1777465174 | 17.22° C | 87% | 1014.4 hPa | 0 mm | - | - | - |
| 1777464575 | 17.22° C | 87% | 1014.5 hPa | 0 mm | - | - | - |
| 1777463975 | 17.22° C | 86% | 1014.3 hPa | 0 mm | - | - | - |
| 1777463375 | 17.22° C | 86% | 1014.3 hPa | 0 mm | - | - | - |
| 1777462775 | 17.78° C | 85% | 1014.1 hPa | 0 mm | - | - | - |
| 1777462175 | 17.78° C | 85% | 1014 hPa | 0 mm | - | - | - |
| 1777461575 | 17.78° C | 84% | 1013.7 hPa | 0 mm | - | - | - |
| 1777460975 | 17.78° C | 83% | 1013.7 hPa | 0 mm | - | - | - |
| 1777460375 | 17.78° C | 82% | 1013.7 hPa | 0 mm | - | - | - |
| 1777459775 | 18.33° C | 81% | 1013.6 hPa | 0 mm | - | - | - |
* Rain latest hour (hover to see other rain measurements)
** Current wind speed in m/s (hover to see current wind gust speed)